Location: Astronight Observatory
(42.6003°N, 71.2981°W)
Time: 23:55:16
(UTC-04:00)

Daily predictions for brighter satellites

Satellite Brightness Start Highest point End
(mag) Time Altitude Azimuth Time Altitude Azimuth Time Altitude Azimuth
COSMO-SKYMED 1 3.1 18:20:17 10° NNE 18:24:19 37° E 18:28:21 10° SSE
Cosmos 1484 Rocket 3.0 18:20:39 10° S 18:24:22 74° WSW 18:28:05 10° NNW
Meteor 2-15 Rocket 4.4 18:19:36 10° N 18:25:41 69° E 18:31:46 10° SSE
Cosmos 2219 Rocket 4.0 18:26:02 10° NNE 18:28:35 13° NE 18:31:07 10° ENE
Landsat 4 3.7 18:24:51 10° NNE 18:28:35 86° WNW 18:32:18 10° SSW
Meteor 2-21 4.5 18:23:05 10° S 18:29:09 88° E 18:35:15 10° N
MTI 3.7 18:27:13 10° NNE 18:30:26 69° ESE 18:33:38 10° S
Cosmos 1703 4.0 18:27:20 10° NNE 18:30:52 31° ENE 18:34:24 10° SE
Cosmos 2218 Rocket 4.0 18:24:50 10° S 18:30:54 64° E 18:36:58 10° NNE
Cosmos 1408 Rocket 3.7 18:26:46 10° N 18:31:14 88° W 18:35:42 10° S
ISS -1.7 18:28:32 10° WNW 18:31:24 28° SW 18:34:17 10° SSE
MOS 1 4.3 18:29:13 10° SSE 18:34:47 64° ENE 18:40:26 10° N
ERS-2 2.8 18:35:09 10° S 18:38:49 62° WSW 18:42:30 10° NNW
SL-16 R/B 2.5 18:34:53 10° NNW 18:40:35 76° WSW 18:46:14 10° SSE
Cosmos 1727 Rocket 4.1 18:34:58 10° N 18:41:15 57° ENE 18:47:27 10° SSE
CZ-4 R/B 2.3 18:37:20 10° S 18:41:29 57° W 18:45:37 10° NNW
Meteor 1-28 Rocket 3.5 18:38:26 10° N 18:42:14 70° WNW 18:45:59 10° SSW
Cosmos 1400 Rocket 2.9 18:39:32 10° N 18:43:32 55° ENE 18:47:27 10° SSE
SL-8 R/B 4.2 18:39:32 10° SW 18:44:06 45° SE 18:48:19 12° ENE
YAOGAN 1 3.0 18:45:16 10° S 18:49:33 69° WSW 18:53:54 10° NNW
Cosmos 1908 4.1 18:47:45 10° SSE 18:51:09 29° E 18:54:33 10° NNE
SKYMED 3 4.5 18:50:05 10° NNE 18:54:28 80° ESE 18:58:48 10° S
SPOT 3 Rocket 3.5 18:50:31 10° SSE 18:55:41 79° ENE 19:00:56 10° NNW
Cosmos 2237 Rocket 4.0 18:55:37 10° NNE 18:58:04 13° NE 18:59:36 12° ENE
GP-B 3.1 18:53:40 10° N 18:58:08 87° W 19:02:33 10° S
CZ-4C R/B 3.4 18:55:52 10° SSE 18:59:23 19° ESE 19:01:01 16° E
H-2A R/B 3.7 18:56:22 10° SE 18:59:37 26° ENE 19:02:55 10° NNE
Cosmos 2056 Rocket 4.1 18:55:04 10° NNW 19:00:20 62° WSW 19:05:29 10° S
SL-08 R/B 4.5 18:55:10 10° S 19:01:21 89° WNW 19:07:30 10° N
METEOR-M 4.3 18:57:49 10° S 19:03:10 79° WSW 19:08:33 10° NNW
Tiangong 1 3.7 19:05:44 10° WSW 19:06:52 12° SSW 19:08:00 10° S
ALOS 2.2 19:05:06 10° SSE 19:09:44 75° ENE 19:14:26 10° N
USA 267 3.9 19:05:42 15° ENE 19:10:24 34° SE 19:16:12 10° S
Cosmos 2098 Rocket 3.9 19:06:37 10° SSE 19:10:24 32° E 19:15:04 10° NNE
SKYMED 2 4.0 19:08:07 10° N 19:12:26 65° WNW 19:16:44 10° SSW
Cosmos 2151 3.1 19:09:24 10° N 19:13:41 81° W 19:17:57 10° S
NOAA 12 4.1 19:10:50 10° SSE 19:16:07 89° WSW 19:21:29 10° NNW
GRACE-2 3.7 19:14:45 10° S 19:17:19 77° W 19:19:55 10° N
Cosmos 1452 Rocket 3.4 19:12:57 10° NNW 19:18:14 78° ENE 19:23:29 10° SSE
Cosmos 1743 Rocket 4.3 19:14:14 10° NNW 19:18:31 55° W 19:22:48 10° S
SL-24 R/B - RUBIN 2 3.6 19:14:22 10° NNW 19:19:18 78° NE 19:22:54 16° SE
GRACE-1 4.0 19:17:01 10° S 19:19:34 66° W 19:22:10 10° N
COSMOS 2428 3.1 19:14:23 10° NNW 19:19:48 43° ENE 19:23:13 21° ESE
Cosmos 2333 Rocket 3.2 19:18:18 10° N 19:23:06 26° NE 19:24:25 24° ENE
Cosmos 2360 Rocket 2.2 19:17:51 10° NNW 19:23:33 83° WSW 19:29:12 10° SSE
BREEZE-M DEB (TANK) 2.1 19:21:35 10° W 19:23:38 45° NNW 19:23:53 42° N
Delta 2 Rocket 4.4 19:22:09 10° SW 19:25:07 24° S 19:25:53 22° SSE
Abrixas rocket 3.4 19:22:26 10° W 19:25:29 34° NNW 19:26:39 26° NNE
Cosmos 1626 3.7 19:22:08 10° NNW 19:25:38 38° W 19:29:07 10° SSW
Cosmos 1315 Rocket 2.7 19:21:37 10° N 19:25:41 87° E 19:29:47 10° S
SAR-Lupe-3 4.4 19:23:02 10° NNE 19:26:38 79° ESE 19:30:13 10° S
Cosmos 1833 4.3 19:20:56 10° SSW 19:26:38 80° WNW 19:32:19 10° NNE
Cosmos 1842 Rocket 4.4 19:22:23 10° SSW 19:26:47 55° W 19:31:10 10° N
Cosmos 2322 Rocket 4.2 19:25:13 10° NW 19:30:01 30° WSW 19:34:48 10° SSW
Cosmos 2219 3.6 19:25:41 10° S 19:30:58 39° ESE 19:34:36 19° NE
FengYun 1-2 T 4.1 19:28:09 10° SSE 19:33:38 70° ENE 19:39:06 10° N
Cosmos 2221 2.4 19:29:37 10° S 19:33:54 79° E 19:38:16 10° N
DELTA 2 R/B (1) 3.9 19:28:32 10° W 19:34:02 60° S 19:36:42 30° ESE
MOS 1-B Rocket 4.3 19:31:50 27° ESE 19:34:09 39° ENE 19:39:41 10° N
Resurs 01 Rocket 2.9 19:36:12 24° NE 19:36:12 24° NE 19:38:46 10° N
CSL-04 DEB 4.4 19:40:03 42° SE 19:41:11 59° ENE 19:45:11 10° N
Aureole 2 Rocket 4.1 19:38:41 10° N 19:40:49 25° NNE 19:40:49 25° NNE
Cosmos 2058 4.5 19:38:54 10° NNW 19:42:46 37° W 19:46:35 10° SSW
RESURS DK-1 3.1 19:39:18 10° NW 19:43:20 54° WSW 19:47:00 12° S
Cosmos 921 Rocket 3.4 19:39:04 10° NNW 19:43:30 67° WSW 19:47:51 10° S
Cosmos 1535 Rocket 4.4 19:39:26 10° S 19:45:29 65° E 19:51:32 10° NNE
USA 234 4.1 19:43:39 25° ENE 19:46:17 34° NNE 19:52:04 10° NW
Cosmos 44 3.1 19:42:55 10° SSW 19:46:58 51° SE 19:46:58 51° SE
SJ-6B 2.5 19:50:19 64° SSE 19:50:51 85° ENE 19:54:36 10° NNW
Lacrosse 5 rocket 3.9 19:48:42 10° NW 19:50:56 14° NNW 19:52:59 10° NNE
Cosmos 2322 4.1 19:45:43 10° NNW 19:51:23 62° WSW 19:56:59 10° S
Iridium 4 Rocket 4.0 19:52:47 10° S 19:58:12 68° W 20:04:01 10° N
Cosmos 1048 Rocket 3.8 19:54:07 10° SSW 19:59:15 88° ESE 20:04:24 10° NNE
Thor Agena Rocket 3.9 19:54:39 10° N 19:59:43 64° WNW 20:04:42 10° SSW
Atlas Centaur 2 3.8 19:55:55 10° SW 19:59:54 22° S 20:01:19 20° SSE
FREGAT/IRIS 4.1 20:00:46 35° WSW 20:01:04 36° W 20:03:53 10° NNW
Cosmos 44 Rocket 3.0 19:57:17 10° SSW 20:01:58 72° ESE 20:01:58 72° ESE
NOSS 0 Rocket 4.1 19:58:33 10° NNW 20:04:33 49° ENE 20:04:53 48° ENE
Gbstr 26 Del rocket 3.8 20:00:12 10° NW 20:05:24 63° NNE 20:06:21 55° ENE
Envisat 3.4 20:09:18 47° NNE 20:09:18 47° NNE 20:13:17 10° N
Cosmos 2219 Rocket 2.0 20:07:59 10° NNW 20:13:36 71° ENE 20:13:48 70° E
Sich 1 3.4 20:09:53 10° N 20:13:24 57° NNW 20:13:24 57° NNW
Cosmos 1821 Rocket 4.3 20:10:59 10° SSW 20:17:04 66° W 20:23:18 10° N
Centaur D AC-28 4.4 20:12:43 10° S 20:14:55 19° SSE 20:14:55 19° SSE
Cosmos 1805 Rocket 4.4 20:14:35 10° NNW 20:18:49 50° W 20:20:42 29° SSW
Cosmos 1934 Rocket 4.1 20:18:13 10° SSW 20:24:34 76° W 20:30:59 10° N
SL-8 R/B 4.2 20:21:51 10° W 20:26:18 57° NW 20:26:18 57° NW
Cosmos 1666 Rocket 4.4 20:23:07 10° NNW 20:26:18 45° NW 20:26:18 45° NW
Cosmos 2237 Rocket 3.0 20:37:35 10° NNW 20:41:26 42° N 20:41:26 42° N
In-Cosmos 22 Rocket 4.4 20:38:17 10° NNW 20:43:56 69° W 20:43:56 69° W
Cosmos 2123 Rocket 4.4 20:38:41 10° NNW 20:44:48 60° W 20:47:28 34° SSW
CZ-4C R/B 2.6 20:41:53 10° SW 20:46:18 58° W 20:46:18 58° W
Cosmos 1605 Rocket 4.1 20:45:05 10° SSW 20:51:11 69° W 20:57:16 10° N
SL-16 R/B 4.0 20:46:57 10° N 20:49:02 21° N 20:49:02 21° N
USA 267 3.3 20:53:06 67° N 20:53:42 72° NW 21:00:12 10° WSW
COSMOS 2428 4.4 20:59:03 10° NW 21:03:50 28° WSW 21:05:17 25° SW
BREEZE-M DEB (TANK) 4.5 20:59:13 10° WNW 21:03:07 32° WNW 21:03:07 32° WNW
Cosmos 2333 Rocket 3.2 21:02:05 10° NW 21:06:27 44° WNW 21:06:27 44° WNW
Resurs 01 Rocket 4.1 21:13:47 18° NW 21:13:47 18° NW 21:15:18 10° NW
USA 234 4.1 21:31:01 45° NW 21:31:01 45° NW 21:35:21 10° NW
